DIRECTV 12

Last updated on Sat Jul 05 2025 00:02:44 GMT+0000 (Coordinated Universal Time)

1 36131U 09075A 25185.62220862 -.00000088 00000+0 00000+0 0 9999 2 36131 0.0083 160.5641 0000570 258.7535 344.8232 1.00266874 56907
UTC large
Height (km)
Speed (km/s)
/
Latitude / Longitude
Inclination (degrees)
Orbital Period (minutes)
Azimuth
Elevation
Range (km)
Doppler Factor

Next 0 passes for location: London (51.5072 / 0.1276)

Sorry there are no passes over London.